Вернуться в каталог

SL-8 DEB

АктивенLEO
NORAD 21711·DEBRIS·🇷🇺 Russia

Запущен Jun 11, 1991 с Plesetsk Cosmodrome

Loading…

Ближайшие Пролёты (ближайшие 24 часа)

TLE

СвежийSource: Space-Track

Эпоха: Sep 13, 2026, 12:25 UTC

1 21711U 91041D   26256.51773782  .00000838  00000-0  20327-3 0  9994
2 21711  74.0149 273.1867 0010933  24.4482 129.4271 14.54477593853677

Отслеживайте SL-8 DEB в реальном времени с AllMySat

Download on the App Store